Regional Weather Roundup
Issued by NWS

Home | Current Version | Previous Version | Graphics & Text | Print | Product List | Glossary Off
Versions: 1 2 3 4 5 6 7 8 9 10 11 12 13 14 15 16 17 18 19 20 21 22 23 24 25 26 27 28 29 30 31 32 33 34 35 36 37 38 39 40 41 42 43 44 45 46 47 48 49 50

000
ASUS43 KMKX 300611
RWRWI

WISCONSIN REGIONAL WEATHER ROUNDUP
NATIONAL WEATHER SERVICE MILWAUKEE/SULLIVAN WI
100 AM CDT TUE JUN 30 2015

NOTE: "FAIR" INDICATES FEW OR NO CLOUDS BELOW 12,000 FEET WITH NO
SIGNIFICANT WEATHER AND/OR OBSTRUCTIONS TO VISIBILITY.

WIZ001-002-006>008-014>016-023>028-300700-
NORTHWEST WISCONSIN

CITY           SKY/WX    TMP DP  RH WIND       PRES   REMARKS
SUPERIOR ARPT  MOCLDY    62  59  90 NE6       29.86R
6HR MIN TEMP:  58; 6HR MAX TEMP:  71;

ASHLAND        PTCLDY    59  58  96 NE6       29.85S
6HR MIN TEMP:  57; 6HR MAX TEMP:  72; 6HR PCP:  0.14;

HAYWARD        FOG       57  56  96 CALM      29.85F VSB 1/4
6HR MIN TEMP:  57; 6HR MAX TEMP:  70; 6HR PCP: TRACE;

SIREN          MOCLDY    58  58  97 CALM      29.85F FOG
6HR MIN TEMP:  57; 6HR MAX TEMP:  67;

CUMBERLAND     PTCLDY    59  57  94 E3        29.86R FOG
RICE LAKE        N/A     58  57  96 CALM      29.86S FOG
6HR MIN TEMP:  58; 6HR MAX TEMP:  65;

CHETEK         CLEAR     58  58 100 NW6       29.84F FOG
6HR MIN TEMP:  58; 6HR MAX TEMP:  64;

LADYSMITH      PTCLDY    60  59  96 N7        29.85S
6HR MIN TEMP:  58; 6HR MAX TEMP:  65;

EAU CLAIRE     FOG       57  56  96 SW3       29.83R VSB 1/2
6HR MIN TEMP:  56; 6HR MAX TEMP:  62;

MENOMONIE      CLEAR     60  59  97 CALM      29.84S FOG
6HR MIN TEMP:  60; 6HR MAX TEMP:  62;

NEW RICHMOND   MOCLDY    60  60 100 CALM      29.85S FOG
6HR MIN TEMP:  58; 6HR MAX TEMP:  61;

OSCEOLA        FOG       60  60 100 CALM      29.87S VSB 1/2
6HR MIN TEMP:  59; 6HR MAX TEMP:  64;

$$

WIZ003>005-009-010-017-018-300700-
NORTH CENTRAL WISCONSIN

CITY           SKY/WX    TMP DP  RH WIND       PRES   REMARKS
MANITOWISH WTR CLOUDY    59  59 100 N3        29.84S
6HR MIN TEMP:  58; 6HR MAX TEMP:  66;

ARBOR VITAE    MOCLDY    61  59  92 N8        29.83S
6HR MIN TEMP:  59; 6HR MAX TEMP:  65;

WOODRUFF       MOCLDY    61  59  92 N8        29.83S
6HR MIN TEMP:  59; 6HR MAX TEMP:  65;

RHINELANDER    CLEAR     59  57  93 CALM      29.83R
6HR MIN TEMP:  59; 6HR MAX TEMP:  65; 6HR PCP:  0.01;

EAGLE RIVER    MOCLDY    60  60 100 N5        29.82S
6HR MIN TEMP:  58; 6HR MAX TEMP:  64; 6HR PCP:  0.39;

LAND O LAKES   CLOUDY    60  59  96 N6        29.84S
6HR MIN TEMP:  59; 6HR MAX TEMP:  64; 6HR PCP:  0.02;

PHILLIPS       PTCLDY    58  58 100 NW5       29.83S
6HR MIN TEMP:  58; 6HR MAX TEMP:  64;

TOMAHAWK       CLOUDY    56  55  97 CALM      29.83R FOG
6HR MIN TEMP:  53; 6HR MAX TEMP:  62;

MEDFORD        CLOUDY    58  57  99 NW5       29.83S FOG
6HR MIN TEMP:  55; 6HR MAX TEMP:  61;

MERRILL        PTCLDY    58  58 100 NW3       29.82S FOG
6HR MIN TEMP:  56; 6HR MAX TEMP:  62;

$$

WIZ029-030-035-036-043>047-300700-
CENTRAL WISCONSIN

CITY           SKY/WX    TMP DP  RH WIND       PRES   REMARKS
WAUSAU         PTCLDY    60  58  92 NW6       29.79S FOG
6HR MIN TEMP:  59; 6HR MAX TEMP:  63;

MOSINEE        NOT AVBL
MARSHFIELD     PTCLDY    59  55  87 NW7       29.82R FOG
6HR MIN TEMP:  58; 6HR MAX TEMP:  63;

STEVENS POINT  CLEAR     57  56  97 W6        29.81S FOG
6HR MIN TEMP:  57; 6HR MAX TEMP:  61;

WAUPACA        CLEAR     59  59  99 W3        29.78F FOG
6HR MIN TEMP:  59; 6HR MAX TEMP:  67;

WAUTOMA        PTCLDY    59  59 100 SW3       29.79F
6HR MIN TEMP:  59; 6HR MAX TEMP:  66; 6HR PCP: TRACE;

WISC RAPIDS    CLEAR     58  55  90 NW5       29.81F
6HR MIN TEMP:  58; 6HR MAX TEMP:  63; 6HR PCP: TRACE;

CAMP DOUGLAS   FOG       54  54 100 W6        29.81S VSB 1/4
6HR MIN TEMP:  54; 6HR MAX TEMP:  62;

$$

WIZ011>013-019>022-031-037>040-048>050-300700-
NORTHEAST WISCONSIN

CITY           SKY/WX    TMP DP  RH WIND       PRES   REMARKS
ANTIGO         PTCLDY    55  55 100 N3        29.81S FOG
SHAWANO        MOCLDY    61  59  92 NW5       29.77S FOG
6HR MIN TEMP:  61; 6HR MAX TEMP:  69; 6HR PCP:  0.06;

OCONTO         CLOUDY    63  63 100 CALM      29.75S
6HR MIN TEMP:  62; 6HR MAX TEMP:  68;

STURGEON BAY   CLOUDY    63  57  82 SE6       29.78S
6HR MIN TEMP:  63; 6HR MAX TEMP:  68;

GREEN BAY      CLOUDY    64  62  93 CALM      29.76S
6HR MIN TEMP:  64; 6HR MAX TEMP:  69; 6HR PCP:  0.57;

MANITOWOC      CLOUDY    63  61  93 MISG      29.76F
6HR MIN TEMP:  62; 6HR MAX TEMP:  68;

APPLETON       MOCLDY    59  59 100 W8        29.77F
CLINTONVILLE   PTCLDY   N/A N/A N/A W7        29.77F
OSHKOSH        MOCLDY    62  58  86 W8        29.77S
6HR MIN TEMP:  62; 6HR MAX TEMP:  73; 6HR PCP:  0.14;

$$

WIZ032>034-041-042-053>061-300700-
SOUTHWEST WISCONSIN

CITY           SKY/WX    TMP DP  RH WIND       PRES   REMARKS
LA CROSSE      CLEAR     62  60  93 NW3       29.82F
6HR MIN TEMP:  61; 6HR MAX TEMP:  66; 6HR PCP:  0.03;

SPARTA         FOG       55  54  97 CALM      29.83S VSB 3/4
6HR MIN TEMP:  54; 6HR MAX TEMP:  62; 6HR PCP:  0.02;

VIROQUA        CLEAR     59  59 100 W3        29.83S
6HR MIN TEMP:  59; 6HR MAX TEMP:  65; 6HR PCP:  0.12;

BOSCOBEL       FOG       60  59  96 CALM      29.82S VSB 3/4
6HR MIN TEMP:  60; 6HR MAX TEMP:  70; 6HR PCP:  0.20;

PRAIRIE DU CHI PTCLDY    61  60  96 CALM      29.81S FOG
6HR MIN TEMP:  58; 6HR MAX TEMP:  65; 6HR PCP:  1.03;

PLATTEVILLE    MOCLDY    61  60  98 NW5       29.82R
6HR MIN TEMP:  61; 6HR MAX TEMP:  76; 6HR PCP:  0.23;

$$

WIZ056-057-062-063-064-067-068-300700-
SOUTH CENTRAL WISCONSIN

CITY           SKY/WX    TMP DP  RH WIND       PRES   REMARKS
REEDSBURG      PTCLDY    58  57  99 CALM      29.80F
6HR MIN TEMP:  58; 6HR MAX TEMP:  64; 6HR PCP:  0.01;

BARABOO/DELLS  PTCLDY    58  56  94 SW3       29.81S FOG
6HR MIN TEMP:  58; 6HR MAX TEMP:  64; 6HR PCP:  0.03;

LONE ROCK      PTCLDY    60  59  96 CALM      29.82S FOG
6HR MIN TEMP:  59; 6HR MAX TEMP:  76; 6HR PCP:  0.32;

MINERAL POINT  PTCLDY    61  59  94 NW3       29.82S
MADISON        MOCLDY    62  59  90 NW5       29.80R
6HR MIN TEMP:  61; 6HR MAX TEMP:  76; 6HR PCP: TRACE;

MIDDLETON      MOCLDY    61  60  98 W5        29.82S
6HR MIN TEMP:  61; 6HR MAX TEMP:  77; 6HR PCP:  0.13;

WATERTOWN      MOCLDY    61  61 100 CALM      29.79R
6HR MIN TEMP:  61; 6HR MAX TEMP:  71; 6HR PCP:  0.02;

MONROE         MOCLDY    61  61 100 NW8       29.81S
JANESVILLE     PTCLDY    61  59  94 W3        29.79R
$$

WIZ051-052-058>065-066-070>072-300700-
SOUTHEAST WISCONSIN

CITY           SKY/WX    TMP DP  RH WIND       PRES   REMARKS
MILWAUKEE      MOCLDY    63  61  93 CALM      29.77S FOG
6HR MIN TEMP:  62; 6HR MAX TEMP:  70;

WAUKESHA       CLOUDY    61  59  94 CALM      29.79S FOG
MILWAUKEE/TIMM CLOUDY    63  59  88 CALM      29.78S
RACINE         PTCLDY    63  61  93 S6        29.79S
6HR MIN TEMP:  63; 6HR MAX TEMP:  66;

BURLINGTON     MOCLDY    60  60  99 CALM      29.78S FOG
6HR MIN TEMP:  60; 6HR MAX TEMP:  70;

KENOSHA        MOCLDY    63  61  93 CALM      29.78S FOG
6HR MIN TEMP:  63; 6HR MAX TEMP:  71;

FOND DU LAC    MOCLDY    62  60  93 CALM      29.78S
6HR MIN TEMP:  62; 6HR MAX TEMP:  72; 6HR PCP:  0.01;

SHEBOYGAN      CLOUDY    62  61  96 S5        29.77S FOG
6HR MIN TEMP:  62; 6HR MAX TEMP:  70;

WEST BEND      CLOUDY    61  61 100 CALM      29.78S FOG
JUNEAU         MOCLDY    61  59  93 CALM      29.80R
6HR MIN TEMP:  61; 6HR MAX TEMP:  71; 6HR PCP:  0.02;

$$

LSZ147-162-300700-
LAKE SUPERIOR

STATION/POSITION TIME  TEMP    WIND        PRES    WAVE
                       AIR SEA DIR/SP/G            HT/PER
                 (UTC) (F)     (DEG/KT/KT) (MB)    (FT/S)
W MID LAKE BUOY  0550   45 38   20/ 12/ 12 1011.5R   0
DEVILS ISLAND    0600   58      60/  9/  9 1011.4R
SAXON HARBOR     0540   59        CALM     1010.8R
$$

LMZ867-665-643>646-300700-
LAKE MICHIGAN

STATION/POSITION TIME  TEMP    WIND        PRES    WAVE
                       AIR SEA DIR/SP/G            HT/PER


USA.gov is the U.S. government's official web portal to all federal, state and local government web resources and services.